When you browse on this site, cookies collect data to enhance your experience and personalize the content and advertising you see.
Visit our Privacy Policy to learn more. By continuing to use the site, you agree to this use of cookies and data.
  • In Hungary
  • List of Countries
  • For 7 days
  • Water Temperature
  • Satellite Maps
  • Weather Map
  • News
  • Weather Widgets
  • user-avatar
    Login

    Hourly Weather Lesna

    Today, 17 June, Monday

    Time Temperature Precipitation Wind Pressure Humidity
    00:00 +15°C° 0 mm 1 mps 744 mmHg 88%
    01:00 +13°C° 0 mm 0 mps 744 mmHg 88%
    02:00 +14°C° 0 mm 1 mps 744 mmHg 88%
    03:00 +14°C° 0 mm 1 mps 744 mmHg 88%
    04:00 +13°C° 0 mm 1 mps 744 mmHg 89%
    05:00 +15°C° 0 mm 1 mps 745 mmHg 83%
    06:00 +18°C° 0 mm 1 mps 745 mmHg 76%
    07:00 +18°C° 0 mm 0 mps 745 mmHg 72%
    08:00 +21°C° 0 mm 1 mps 745 mmHg 68%
    09:00 +21°C° 0 mm 2 mps 745 mmHg 63%
    10:00 +23°C° 0 mm 2 mps 745 mmHg 58%
    11:00 +24°C° 0 mm 2 mps 745 mmHg 58%
    12:00 +24°C° 0 mm 2 mps 745 mmHg 57%
    13:00 +25°C° 0 mm 3 mps 744 mmHg 57%
    14:00 +25°C° 0 mm 3 mps 744 mmHg 57%
    15:00 +25°C° 0 mm 3 mps 744 mmHg 58%
    16:00 +25°C° 0 mm 3 mps 743 mmHg 58%
    17:00 +22°C° 0 mm 3 mps 743 mmHg 64%
    18:00 +21°C° 0 mm 3 mps 743 mmHg 70%
    19:00 +20°C° 0 mm 2 mps 743 mmHg 76%
    20:00 +19°C° 0 mm 2 mps 743 mmHg 78%
    21:00 +17°C° 0 mm 2 mps 743 mmHg 80%
    22:00 +16°C° 0 mm 2 mps 743 mmHg 81%
    23:00 +16°C° 0 mm 2 mps 743 mmHg 83%

    Tomorrow, 18 June, Tuesday

    Time Temperature Precipitation Wind Pressure Humidity
    00:00 +15°C° 0 mm 2 mps 743 mmHg 84%
    01:00 +15°C° 0 mm 2 mps 743 mmHg 86%
    02:00 +15°C° 0 mm 2 mps 743 mmHg 87%
    03:00 +14°C° 0 mm 2 mps 743 mmHg 88%
    04:00 +14°C° 0 mm 2 mps 742 mmHg 89%
    05:00 +16°C° 0 mm 2 mps 743 mmHg 84%
    06:00 +18°C° 0 mm 2 mps 743 mmHg 80%
    07:00 +19°C° 0 mm 2 mps 743 mmHg 75%
    08:00 +21°C° 0 mm 3 mps 743 mmHg 71%
    09:00 +22°C° 0 mm 3 mps 743 mmHg 66%
    10:00 +24°C° 0 mm 3 mps 742 mmHg 62%
    11:00 +25°C° 0 mm 3 mps 742 mmHg 62%
    12:00 +26°C° 0 mm 4 mps 741 mmHg 62%
    13:00 +26°C° 0 mm 4 mps 741 mmHg 61%
    14:00 +26°C° 0 mm 4 mps 741 mmHg 63%
    15:00 +26°C° 0 mm 4 mps 740 mmHg 64%
    16:00 +26°C° 0 mm 4 mps 740 mmHg 66%
    17:00 +25°C° 0.2 mm 3 mps 740 mmHg 71%
    18:00 +24°C° 0.2 mm 3 mps 739 mmHg 77%
    19:00 +22°C° 0.2 mm 3 mps 739 mmHg 82%
    20:00 +21°C° 0 mm 2 mps 739 mmHg 85%
    21:00 +20°C° 0 mm 2 mps 739 mmHg 88%
    22:00 +18°C° 0 mm 2 mps 739 mmHg 91%
    23:00 +19°C° 0 mm 1 mps 739 mmHg 91%

    Day after tomorrow, 19 June, Wednesday

    Time Temperature Precipitation Wind Pressure Humidity
    00:00 +19°C° 0 mm 1 mps 739 mmHg 91%
    01:00 +19°C° 0 mm 1 mps 738 mmHg 91%
    02:00 +19°C° 0 mm 1 mps 738 mmHg 91%
    03:00 +18°C° 0 mm 1 mps 738 mmHg 90%
    04:00 +18°C° 0 mm 1 mps 738 mmHg 90%
    05:00 +20°C° 0 mm 1 mps 738 mmHg 86%
    06:00 +22°C° 0 mm 1 mps 738 mmHg 81%
    07:00 +23°C° 0 mm 1 mps 738 mmHg 77%
    08:00 +25°C° 0 mm 1 mps 738 mmHg 73%
    09:00 +26°C° 0 mm 1 mps 737 mmHg 68%
    10:00 +27°C° 0 mm 2 mps 737 mmHg 64%
    11:00 +28°C° 0.2 mm 2 mps 737 mmHg 63%
    12:00 +28°C° 0.2 mm 2 mps 737 mmHg 62%
    13:00 +28°C° 0.2 mm 2 mps 737 mmHg 61%
    14:00 +28°C° 0.2 mm 2 mps 737 mmHg 60%
    15:00 +29°C° 0.2 mm 2 mps 736 mmHg 59%
    16:00 +29°C° 0.2 mm 1 mps 736 mmHg 58%
    17:00 +28°C° 0.1 mm 1 mps 736 mmHg 63%
    18:00 +27°C° 0.1 mm 1 mps 736 mmHg 69%
    19:00 +26°C° 0.1 mm 1 mps 735 mmHg 74%
    20:00 +24°C° 0 mm 1 mps 736 mmHg 77%
    21:00 +23°C° 0 mm 1 mps 736 mmHg 79%
    22:00 +21°C° 0 mm 2 mps 736 mmHg 82%
    23:00 +20°C° 0 mm 2 mps 736 mmHg 82%

    20 June, Thursday

    Time Temperature Precipitation Wind Pressure Humidity
    00:00 +20°C° 0 mm 2 mps 736 mmHg 82%
    01:00 +20°C° 0 mm 2 mps 736 mmHg 82%
    02:00 +19°C° 0.1 mm 2 mps 736 mmHg 84%
    03:00 +19°C° 0.1 mm 2 mps 736 mmHg 86%
    04:00 +19°C° 0.1 mm 2 mps 736 mmHg 88%
    05:00 +20°C° 0 mm 2 mps 736 mmHg 85%
    06:00 +21°C° 0 mm 2 mps 737 mmHg 83%
    07:00 +23°C° 0 mm 2 mps 737 mmHg 80%
    08:00 +24°C° 0.2 mm 2 mps 737 mmHg 76%
    09:00 +25°C° 0.2 mm 2 mps 737 mmHg 71%
    10:00 +26°C° 0.2 mm 2 mps 737 mmHg 66%
    11:00 +27°C° 0.1 mm 2 mps 737 mmHg 63%
    12:00 +28°C° 0.1 mm 2 mps 737 mmHg 61%
    13:00 +28°C° 0.1 mm 2 mps 737 mmHg 58%
    14:00 +28°C° 0.8 mm 1 mps 737 mmHg 60%
    15:00 +28°C° 0.8 mm 1 mps 737 mmHg 63%
    16:00 +28°C° 0.8 mm 1 mps 737 mmHg 65%
    17:00 +27°C° 0.5 mm 1 mps 736 mmHg 69%
    18:00 +26°C° 0.5 mm 1 mps 736 mmHg 74%
    19:00 +25°C° 0.5 mm 1 mps 736 mmHg 78%
    20:00 +24°C° 0.1 mm 1 mps 736 mmHg 80%
    21:00 +22°C° 0.1 mm 1 mps 736 mmHg 82%
    22:00 +21°C° 0.1 mm 1 mps 736 mmHg 84%
    23:00 +20°C° 0.8 mm 1 mps 736 mmHg 86%

    21 June, Friday

    Time Temperature Precipitation Wind Pressure Humidity
    00:00 +19°C° 0.8 mm 2 mps 737 mmHg 89%
    01:00 +19°C° 0.8 mm 2 mps 737 mmHg 91%
    02:00 +19°C° 0.7 mm 2 mps 737 mmHg 93%
    03:00 +18°C° 0.7 mm 2 mps 737 mmHg 95%
    04:00 +18°C° 0.7 mm 2 mps 737 mmHg 97%
    05:00 +19°C° 0 mm 3 mps 737 mmHg 95%
    06:00 +19°C° 0 mm 3 mps 738 mmHg 93%
    07:00 +19°C° 0 mm 3 mps 738 mmHg 91%
    08:00 +20°C° 0.2 mm 3 mps 738 mmHg 88%
    09:00 +21°C° 0.2 mm 3 mps 739 mmHg 85%
    10:00 +21°C° 0.2 mm 4 mps 739 mmHg 82%
    11:00 +22°C° 0.1 mm 4 mps 739 mmHg 76%
    12:00 +24°C° 0.1 mm 3 mps 739 mmHg 70%
    13:00 +25°C° 0.1 mm 3 mps 739 mmHg 64%
    14:00 +25°C° 0 mm 3 mps 739 mmHg 64%
    15:00 +26°C° 0 mm 3 mps 739 mmHg 63%
    16:00 +26°C° 0 mm 2 mps 739 mmHg 62%
    17:00 +25°C° 0 mm 2 mps 739 mmHg 66%
    18:00 +24°C° 0 mm 2 mps 739 mmHg 70%
    19:00 +23°C° 0 mm 1 mps 739 mmHg 75%
    20:00 +22°C° 0 mm 1 mps 739 mmHg 78%
    21:00 +20°C° 0 mm 1 mps 740 mmHg 82%
    22:00 +19°C° 0 mm 1 mps 740 mmHg 85%
    23:00 +19°C° 0 mm 1 mps 740 mmHg 87%

    22 June, Saturday

    Time Temperature Precipitation Wind Pressure Humidity
    00:00 +18°C° 0 mm 1 mps 740 mmHg 89%
    01:00 +18°C° 0 mm 1 mps 740 mmHg 92%
    02:00 +18°C° 0 mm 1 mps 740 mmHg 93%
    03:00 +16°C° 0 mm 1 mps 740 mmHg 94%
    04:00 +16°C° 0 mm 1 mps 740 mmHg 95%
    05:00 +17°C° 0.2 mm 2 mps 741 mmHg 94%
    06:00 +18°C° 0.2 mm 3 mps 741 mmHg 92%
    07:00 +18°C° 0.2 mm 3 mps 741 mmHg 90%
    08:00 +18°C° 1.2 mm 4 mps 741 mmHg 92%
    09:00 +18°C° 1.2 mm 4 mps 741 mmHg 93%
    10:00 +17°C° 1.2 mm 4 mps 741 mmHg 94%
    11:00 +17°C° 0.2 mm 4 mps 741 mmHg 93%
    12:00 +17°C° 0.2 mm 4 mps 741 mmHg 91%
    13:00 +17°C° 0.2 mm 4 mps 741 mmHg 90%
    14:00 +17°C° 0.2 mm 4 mps 741 mmHg 89%
    15:00 +17°C° 0.2 mm 4 mps 741 mmHg 88%
    16:00 +17°C° 0.2 mm 4 mps 740 mmHg 87%
    17:00 +17°C° 0 mm 4 mps 740 mmHg 87%
    18:00 +17°C° 0 mm 4 mps 740 mmHg 87%
    19:00 +17°C° 0 mm 4 mps 741 mmHg 88%
    20:00 +15°C° 0.1 mm 4 mps 741 mmHg 89%
    21:00 +16°C° 0.1 mm 3 mps 741 mmHg 89%
    22:00 +16°C° 0.1 mm 3 mps 741 mmHg 90%
    23:00 +16°C° 0.6 mm 3 mps 740 mmHg 90%
    Show more